カタログに戻る

IRIDIUM 166

運用中通信PO
NORAD 43570·PAYLOAD·🇺🇸 United States

打ち上げ Jul 25, 2018 から Vandenberg Space Force Base

Loading…

次のパス (今後24時間)

TLE

最新Source: CelesTrak SupGP

元期: Sep 14, 2026, 21:50 UTC

1 43570C 18061B   26257.91006944 -.00001720  00000+0 -61503-3 0  2576
2 43570  86.4012  19.2220 0002152  95.1797  71.4444 14.34219674    12

AllMySatでIRIDIUM 166をリアルタイム追跡

Download on the App Store